Hourly Weather Dabrowka

Today, 26 January, Tuesday

Time Temperature Precipitation Wind Pressure Humidity
00:00 -3°C° 0 mm 4 mps 735 mmHg 92%
01:00 -3°C° 0 mm 4 mps 736 mmHg 90%
02:00 -3°C° 0 mm 4 mps 736 mmHg 90%
03:00 -2°C° 0 mm 3 mps 736 mmHg 91%
04:00 -2°C° 0 mm 3 mps 737 mmHg 91%
05:00 -2°C° 0.1 mm 3 mps 737 mmHg 91%
06:00 -3°C° 0.1 mm 4 mps 737 mmHg 91%
07:00 -3°C° 0.1 mm 4 mps 737 mmHg 91%
08:00 -3°C° 0 mm 4 mps 738 mmHg 88%
09:00 -3°C° 0 mm 4 mps 738 mmHg 85%
10:00 -2°C° 0 mm 4 mps 738 mmHg 82%
11:00 -2°C° 0 mm 4 mps 738 mmHg 80%
12:00 -1°C° 0 mm 4 mps 738 mmHg 78%
13:00 -1°C° 0 mm 4 mps 739 mmHg 76%
14:00 0°C° 0 mm 3 mps 739 mmHg 76%
15:00 -1°C° 0 mm 2 mps 738 mmHg 76%
16:00 -1°C° 0 mm 2 mps 738 mmHg 77%
17:00 -2°C° 0 mm 2 mps 739 mmHg 80%
18:00 -2°C° 0 mm 2 mps 739 mmHg 84%
19:00 -1°C° 0 mm 1 mps 739 mmHg 88%
20:00 -3°C° 0 mm 2 mps 739 mmHg 90%
21:00 -3°C° 0 mm 2 mps 740 mmHg 91%
22:00 -3°C° 0 mm 2 mps 740 mmHg 92%
23:00 -4°C° 0.1 mm 3 mps 740 mmHg 93%

Tomorrow, 27 January, Wednesday

Time Temperature Precipitation Wind Pressure Humidity
00:00 -2°C° 0.1 mm 3 mps 740 mmHg 94%
01:00 -3°C° 0.1 mm 4 mps 741 mmHg 95%
02:00 -3°C° 0.3 mm 4 mps 741 mmHg 94%
03:00 -3°C° 0.3 mm 4 mps 741 mmHg 94%
04:00 -4°C° 0.3 mm 5 mps 740 mmHg 93%
05:00 -4°C° 0.2 mm 5 mps 741 mmHg 93%
06:00 -3°C° 0.2 mm 4 mps 741 mmHg 94%
07:00 -3°C° 0.2 mm 4 mps 741 mmHg 94%
08:00 -3°C° 0.1 mm 4 mps 741 mmHg 92%
09:00 -4°C° 0.1 mm 5 mps 741 mmHg 90%
10:00 -4°C° 0.1 mm 5 mps 742 mmHg 88%
11:00 -2°C° 0 mm 4 mps 741 mmHg 85%
12:00 -2°C° 0 mm 4 mps 741 mmHg 82%
13:00 0°C° 0 mm 3 mps 741 mmHg 80%
14:00 -1°C° 0 mm 3 mps 741 mmHg 81%
15:00 -1°C° 0 mm 2 mps 741 mmHg 82%
16:00 +1°C° 0 mm 1 mps 741 mmHg 84%
17:00 0°C° 0 mm 1 mps 740 mmHg 85%
18:00 -1°C° 0 mm 1 mps 740 mmHg 87%
19:00 -1°C° 0 mm 1 mps 740 mmHg 89%
20:00 -1°C° 0 mm 1 mps 740 mmHg 88%
21:00 -3°C° 0 mm 2 mps 740 mmHg 88%
22:00 -3°C° 0 mm 2 mps 740 mmHg 88%
23:00 -3°C° 0 mm 2 mps 740 mmHg 87%

Day after tomorrow, 28 January, Thursday

Time Temperature Precipitation Wind Pressure Humidity
00:00 -3°C° 0 mm 2 mps 739 mmHg 86%
01:00 -3°C° 0 mm 2 mps 739 mmHg 84%
02:00 -3°C° 0 mm 2 mps 738 mmHg 84%
03:00 -3°C° 0 mm 2 mps 738 mmHg 84%
04:00 -3°C° 0 mm 2 mps 737 mmHg 83%
05:00 -3°C° 0.1 mm 2 mps 737 mmHg 85%
06:00 -3°C° 0.1 mm 2 mps 737 mmHg 88%
07:00 -2°C° 0.1 mm 2 mps 737 mmHg 90%
08:00 -2°C° 0.1 mm 3 mps 737 mmHg 90%
09:00 -1°C° 0.1 mm 3 mps 737 mmHg 91%
10:00 -1°C° 0.1 mm 4 mps 737 mmHg 91%
11:00 0°C° 0 mm 3 mps 737 mmHg 88%
12:00 0°C° 0 mm 3 mps 737 mmHg 84%
13:00 0°C° 0 mm 3 mps 736 mmHg 81%
14:00 -1°C° 0 mm 2 mps 736 mmHg 82%
15:00 +1°C° 0 mm 1 mps 735 mmHg 83%
16:00 -1°C° 0 mm 0 mps 735 mmHg 85%
17:00 0°C° 0 mm 1 mps 735 mmHg 86%
18:00 0°C° 0 mm 1 mps 734 mmHg 87%
19:00 -2°C° 0 mm 2 mps 734 mmHg 89%
20:00 -2°C° 0.1 mm 2 mps 734 mmHg 91%
21:00 -2°C° 0.1 mm 2 mps 733 mmHg 94%
22:00 -1°C° 0.1 mm 2 mps 733 mmHg 97%
23:00 -1°C° 0.5 mm 2 mps 732 mmHg 97%

29 January, Friday

Time Temperature Precipitation Wind Pressure Humidity
00:00 +1°C° 0.5 mm 1 mps 732 mmHg 98%
01:00 +1°C° 0.5 mm 1 mps 732 mmHg 98%
02:00 +1°C° 0.1 mm 1 mps 732 mmHg 98%
03:00 +1°C° 0.1 mm 1 mps 732 mmHg 98%
04:00 0°C° 0.1 mm 0 mps 732 mmHg 98%
05:00 +1°C° 0.1 mm 1 mps 732 mmHg 98%
06:00 +1°C° 0.1 mm 1 mps 732 mmHg 98%
07:00 +1°C° 0.1 mm 1 mps 732 mmHg 98%
08:00 +1°C° 0 mm 1 mps 731 mmHg 97%
09:00 +1°C° 0 mm 1 mps 731 mmHg 96%
10:00 -1°C° 0 mm 2 mps 731 mmHg 95%
11:00 -1°C° 0.2 mm 2 mps 730 mmHg 96%
12:00 +1°C° 0.2 mm 2 mps 729 mmHg 97%
13:00 +1°C° 0.2 mm 2 mps 729 mmHg 98%
14:00 +1°C° 1.3 mm 2 mps 728 mmHg 98%
15:00 +1°C° 1.3 mm 2 mps 728 mmHg 98%
16:00 -1°C° 1.3 mm 2 mps 727 mmHg 98%
17:00 +1°C° 0.2 mm 2 mps 728 mmHg 98%
18:00 +2°C° 0.2 mm 1 mps 728 mmHg 98%
19:00 +2°C° 0.2 mm 1 mps 728 mmHg 98%
20:00 +1°C° 0.1 mm 2 mps 728 mmHg 97%
21:00 +1°C° 0.1 mm 2 mps 728 mmHg 97%
22:00 +2°C° 0.1 mm 2 mps 728 mmHg 96%
23:00 +1°C° 0.1 mm 3 mps 728 mmHg 95%

30 January, Saturday

Time Temperature Precipitation Wind Pressure Humidity
00:00 +1°C° 0.1 mm 3 mps 728 mmHg 94%
01:00 +1°C° 0.1 mm 4 mps 728 mmHg 93%
02:00 0°C° 0.1 mm 4 mps 727 mmHg 93%
03:00 +1°C° 0.1 mm 3 mps 727 mmHg 92%
04:00 +1°C° 0.1 mm 3 mps 727 mmHg 92%
05:00 0°C° 0.4 mm 4 mps 727 mmHg 93%
06:00 -2°C° 0.4 mm 6 mps 727 mmHg 94%
07:00 -3°C° 0.4 mm 7 mps 728 mmHg 95%
08:00 -3°C° 0.1 mm 7 mps 729 mmHg 93%
09:00 -4°C° 0.1 mm 6 mps 730 mmHg 91%
10:00 -5°C° 0.1 mm 6 mps 731 mmHg 89%
11:00 -4°C° 0.1 mm 6 mps 732 mmHg 86%
12:00 -4°C° 0.1 mm 5 mps 733 mmHg 83%
13:00 -4°C° 0.1 mm 5 mps 733 mmHg 79%
14:00 -3°C° 0 mm 4 mps 734 mmHg 80%
15:00 -3°C° 0 mm 4 mps 734 mmHg 81%
16:00 -4°C° 0 mm 4 mps 734 mmHg 82%
17:00 -4°C° 0 mm 3 mps 735 mmHg 83%
18:00 -4°C° 0 mm 3 mps 735 mmHg 84%
19:00 -5°C° 0 mm 3 mps 735 mmHg 85%
20:00 -4°C° 0.1 mm 3 mps 736 mmHg 84%
21:00 -4°C° 0.1 mm 4 mps 736 mmHg 83%
22:00 -5°C° 0.1 mm 5 mps 736 mmHg 81%
23:00 -4°C° 0 mm 4 mps 736 mmHg 82%

31 January, Sunday

Time Temperature Precipitation Wind Pressure Humidity
00:00 -4°C° 0 mm 4 mps 736 mmHg 83%
01:00 -4°C° 0 mm 4 mps 736 mmHg 84%
02:00 -4°C° 0.1 mm 4 mps 736 mmHg 85%
03:00 -4°C° 0.1 mm 4 mps 737 mmHg 86%
04:00 -5°C° 0.1 mm 5 mps 737 mmHg 87%
05:00 -4°C° 0 mm 4 mps 737 mmHg 87%
06:00 -4°C° 0 mm 4 mps 737 mmHg 87%
07:00 -5°C° 0 mm 3 mps 737 mmHg 87%
08:00 -4°C° 0 mm 3 mps 737 mmHg 83%
09:00 -4°C° 0 mm 3 mps 737 mmHg 79%
10:00 -2°C° 0 mm 3 mps 736 mmHg 75%
11:00 -1°C° 0 mm 3 mps 736 mmHg 73%
12:00 -1°C° 0 mm 3 mps 735 mmHg 70%
13:00 -1°C° 0 mm 4 mps 735 mmHg 68%
14:00 0°C° 0 mm 3 mps 734 mmHg 71%
15:00 -1°C° 0 mm 3 mps 733 mmHg 74%
16:00 -1°C° 0 mm 2 mps 733 mmHg 76%
17:00 -1°C° 0 mm 3 mps 732 mmHg 76%
18:00 -1°C° 0 mm 3 mps 731 mmHg 76%
19:00 -3°C° 0 mm 4 mps 731 mmHg 75%
20:00 -2°C° 0 mm 4 mps 730 mmHg 78%
21:00 -2°C° 0 mm 4 mps 730 mmHg 80%
22:00 -2°C° 0 mm 4 mps 729 mmHg 82%
23:00 -2°C° 0.1 mm 4 mps 729 mmHg 85%
Show more

We Need Your Consent

Meteoprog and our Service Providers may store and access personal data such as cookies, device identifiers or other similar technologies on your device and process such data to personalise content and ads, as well as provide social media features and to analyse the traffic.

  • Store and/or access information on your device

    Cookies, device identifiers or other information can be stored or accessed on your device for the purposes indicated above.

  • Personalised ads and content, ad and content measurement, audience insights, and products development

    Ads and content can be personalised based on a profile. More data can be added to better personalise ads and content. Ad and content performance can be measured. Insights about the audience who saw the ads and content can be derived. Such data can be used to develop or improve user’s experience, systems and software.

By clicking ‘I Agree’ you will allow the use of indicated cookies, device identifiers, web beacons or other similar technologies. Your settings can be changed in the browser on your device.

For certain purposes, legitimate interests may be relied on, rather than consent. You can read more about this in our Privacy and Cookie Policy.